Hourly Data Report for June 18, 2021

VINELAND STATION RCS
ONTARIO
Current Station Operator: ECCC - MSC

43°11'00.000" N
79°24'00.000" W
79.20 m
6139148
71171
XVN

Download Data

Hourly Data (June 2021)
Hourly Data Report for June 18, 2021
TIME
LST
Temp Definition
°C
Dew Point Definition
°C
Rel Hum Definition
%
Precip. Amount Definition
mm

Wind Dir Definition
10's deg

Wind Spd Definition
km/h
Visibility Definition
km
Stn Press Definition
kPa
Hmdx Definition


Wind Chill Definition


Weather Definition


00:00 18.2 9.7 58 0.0 20 12   100.31     LegendNANA
01:00 18.6 10.5 59 0.0 20 14   100.28     LegendNANA
02:00 19.1 11.0 59 0.0 20 20   100.24     LegendNANA
03:00 19.9 11.9 60 0.0 20 22   100.13     LegendNANA
04:00 20.0 11.9 60 0.0 21 19   100.14     LegendNANA
05:00 19.8 12.1 61 0.0 20 25   100.05     LegendNANA
06:00 20.4 12.9 62 0.0 22 24   100.11     LegendNANA
07:00 19.8 13.7 68 0.0 20 27   100.11     LegendNANA
08:00 19.0 14.7 76 0.0 23 22   100.17     LegendNANA
09:00 19.0 15.8 82 0.3 23 19   100.09     LegendNANA
10:00 18.8 15.9 83 0.0 19 15   100.08     LegendNANA
11:00 20.1 16.7 81 0.0 21 17   100.07 25   LegendNANA
12:00 18.8 16.3 86 0.2 22 15   100.05     LegendNANA
13:00 19.0 16.4 85 0.6 22 8   99.97     LegendNANA
14:00 20.5 16.4 77 0.0 17 4   99.82 25   LegendNANA
15:00 25.4 17.2 61 0.0 20 20   99.74 31   LegendNANA
16:00 25.8 17.0 58 0.0 22 19   99.67 31   LegendNANA
17:00 25.1 17.0 61 0.0 23 24   99.58 30   LegendNANA
18:00 25.2 17.2 61 0.0 23 29   99.56 31   LegendNANA
19:00 24.0 17.6 68 0.0 22 25   99.58 30   LegendNANA
20:00 22.6 17.5 73 0.0 21 19   99.53 28   LegendNANA
21:00 21.5 17.3 77 0.0 21 21   99.53 27   LegendNANA
22:00 21.5 17.9 80 0.0 22 21   99.56 27   LegendNANA
23:00 21.3 18.2 83 0.0 22 22   99.59 27   LegendNANA

Notes on Data Quality.

Legend

  • E = Estimated
  • M = Missing
  • NA = Not Available*
  • [empty] = Indicates an unobserved value
Date modified: